When you browse on this site, cookies collect data to enhance your experience and personalize the content and advertising you see.
Visit our Privacy Policy to learn more. By continuing to use the site, you agree to this use of cookies and data.
  • En España
  • Lista de países
  • Para 7 días
  • Temperatura del agua
  • El tiempo en el mapa
  • Informadores
  • user-avatar
    Iniciar sesión

    Tiempo cada hora Vlore

    Hoy, 4 Junio, Jueves

    Tiempo Temperatura Precipitaciones Viento Presión Humedad
    00:00 +18°C° 0 mm 2 mps 758 mmHg 56%
    01:00 +17°C° 0 mm 2 mps 758 mmHg 54%
    02:00 +17°C° 0 mm 3 mps 757 mmHg 54%
    03:00 +17°C° 0 mm 4 mps 757 mmHg 54%
    04:00 +16°C° 0 mm 5 mps 757 mmHg 54%
    05:00 +19°C° 0 mm 5 mps 757 mmHg 54%
    06:00 +20°C° 0 mm 6 mps 757 mmHg 53%
    07:00 +22°C° 0 mm 6 mps 758 mmHg 52%
    08:00 +23°C° 0 mm 7 mps 758 mmHg 50%
    09:00 +24°C° 0 mm 7 mps 758 mmHg 48%
    10:00 +26°C° 0 mm 8 mps 758 mmHg 46%
    11:00 +26°C° 0 mm 8 mps 758 mmHg 45%
    12:00 +26°C° 0 mm 8 mps 758 mmHg 44%
    13:00 +27°C° 0 mm 9 mps 758 mmHg 44%
    14:00 +26°C° 0 mm 9 mps 758 mmHg 46%
    15:00 +26°C° 0 mm 9 mps 758 mmHg 49%
    16:00 +24°C° 0 mm 9 mps 758 mmHg 52%
    17:00 +23°C° 0 mm 9 mps 758 mmHg 59%
    18:00 +21°C° 0 mm 10 mps 758 mmHg 66%
    19:00 +19°C° 0 mm 10 mps 758 mmHg 73%
    20:00 +18°C° 0 mm 10 mps 758 mmHg 72%
    21:00 +18°C° 0 mm 10 mps 758 mmHg 71%
    22:00 +18°C° 0 mm 11 mps 758 mmHg 69%
    23:00 +18°C° 0 mm 11 mps 758 mmHg 68%

    Mañana, 5 Junio, Viernes

    Tiempo Temperatura Precipitaciones Viento Presión Humedad
    00:00 +17°C° 0 mm 11 mps 758 mmHg 68%
    01:00 +17°C° 0 mm 11 mps 758 mmHg 67%
    02:00 +17°C° 0 mm 11 mps 757 mmHg 64%
    03:00 +17°C° 0 mm 11 mps 757 mmHg 61%
    04:00 +17°C° 0 mm 11 mps 757 mmHg 58%
    05:00 +18°C° 0.1 mm 10 mps 757 mmHg 56%
    06:00 +21°C° 0.1 mm 9 mps 757 mmHg 54%
    07:00 +22°C° 0.1 mm 9 mps 758 mmHg 53%
    08:00 +22°C° 0.4 mm 9 mps 757 mmHg 53%
    09:00 +22°C° 0.4 mm 9 mps 757 mmHg 54%
    10:00 +22°C° 0.4 mm 9 mps 757 mmHg 55%
    11:00 +23°C° 0 mm 9 mps 757 mmHg 52%
    12:00 +24°C° 0 mm 9 mps 756 mmHg 49%
    13:00 +26°C° 0 mm 10 mps 756 mmHg 46%
    14:00 +24°C° 0.2 mm 9 mps 756 mmHg 50%
    15:00 +23°C° 0.2 mm 8 mps 755 mmHg 53%
    16:00 +22°C° 0.2 mm 8 mps 755 mmHg 57%
    17:00 +21°C° 1.4 mm 7 mps 755 mmHg 64%
    18:00 +20°C° 1.4 mm 6 mps 755 mmHg 71%
    19:00 +19°C° 1.4 mm 6 mps 755 mmHg 78%
    20:00 +19°C° 1.7 mm 5 mps 755 mmHg 81%
    21:00 +17°C° 1.7 mm 5 mps 755 mmHg 83%
    22:00 +18°C° 1.7 mm 4 mps 755 mmHg 86%
    23:00 +17°C° 3.2 mm 5 mps 755 mmHg 87%

    Pasado mañana, 6 Junio, Sábado

    Tiempo Temperatura Precipitaciones Viento Presión Humedad
    00:00 +16°C° 3.2 mm 6 mps 755 mmHg 89%
    01:00 +16°C° 3.2 mm 6 mps 755 mmHg 91%
    02:00 +16°C° 0.9 mm 6 mps 755 mmHg 88%
    03:00 +16°C° 0.9 mm 6 mps 755 mmHg 86%
    04:00 +17°C° 0.9 mm 5 mps 755 mmHg 84%
    05:00 +18°C° 0.1 mm 4 mps 755 mmHg 79%
    06:00 +19°C° 0.1 mm 3 mps 755 mmHg 75%
    07:00 +20°C° 0.1 mm 2 mps 755 mmHg 71%
    08:00 +21°C° 0 mm 2 mps 756 mmHg 67%
    09:00 +23°C° 0 mm 2 mps 756 mmHg 64%
    10:00 +25°C° 0 mm 1 mps 756 mmHg 60%
    11:00 +25°C° 0 mm 2 mps 756 mmHg 62%
    12:00 +25°C° 0 mm 2 mps 756 mmHg 65%
    13:00 +25°C° 0 mm 3 mps 756 mmHg 67%
    14:00 +24°C° 0 mm 2 mps 756 mmHg 68%
    15:00 +24°C° 0 mm 2 mps 756 mmHg 69%
    16:00 +24°C° 0 mm 1 mps 756 mmHg 70%
    17:00 +23°C° 0 mm 2 mps 756 mmHg 73%
    18:00 +21°C° 0 mm 2 mps 756 mmHg 77%
    19:00 +20°C° 0 mm 2 mps 757 mmHg 80%
    20:00 +20°C° 0 mm 2 mps 757 mmHg 79%
    21:00 +19°C° 0 mm 2 mps 758 mmHg 78%
    22:00 +19°C° 0 mm 2 mps 758 mmHg 77%
    23:00 +19°C° 0 mm 2 mps 758 mmHg 78%

    7 Junio, Domingo

    Tiempo Temperatura Precipitaciones Viento Presión Humedad
    00:00 +20°C° 0 mm 1 mps 758 mmHg 79%
    01:00 +19°C° 0 mm 1 mps 758 mmHg 80%
    02:00 +19°C° 0 mm 1 mps 758 mmHg 79%
    03:00 +18°C° 0 mm 2 mps 758 mmHg 78%
    04:00 +18°C° 0 mm 2 mps 758 mmHg 77%
    05:00 +19°C° 0 mm 2 mps 758 mmHg 73%
    06:00 +21°C° 0 mm 2 mps 758 mmHg 69%
    07:00 +23°C° 0 mm 2 mps 758 mmHg 65%
    08:00 +24°C° 0 mm 2 mps 759 mmHg 63%
    09:00 +25°C° 0 mm 2 mps 759 mmHg 61%
    10:00 +26°C° 0 mm 2 mps 759 mmHg 59%
    11:00 +26°C° 0 mm 3 mps 759 mmHg 58%
    12:00 +27°C° 0 mm 3 mps 759 mmHg 57%
    13:00 +27°C° 0 mm 3 mps 759 mmHg 56%
    14:00 +27°C° 0 mm 3 mps 759 mmHg 56%
    15:00 +27°C° 0 mm 3 mps 759 mmHg 57%
    16:00 +26°C° 0 mm 3 mps 758 mmHg 57%
    17:00 +25°C° 0 mm 3 mps 759 mmHg 63%
    18:00 +24°C° 0 mm 2 mps 759 mmHg 69%
    19:00 +23°C° 0 mm 2 mps 759 mmHg 75%
    20:00 +21°C° 0 mm 2 mps 759 mmHg 75%
    21:00 +21°C° 0 mm 2 mps 759 mmHg 76%
    22:00 +20°C° 0 mm 2 mps 759 mmHg 77%
    23:00 +20°C° 0 mm 2 mps 759 mmHg 77%

    8 Junio, Lunes

    Tiempo Temperatura Precipitaciones Viento Presión Humedad
    00:00 +20°C° 0 mm 2 mps 759 mmHg 77%
    01:00 +19°C° 0 mm 2 mps 759 mmHg 78%
    02:00 +19°C° 0 mm 2 mps 759 mmHg 77%
    03:00 +19°C° 0 mm 2 mps 758 mmHg 76%
    04:00 +19°C° 0 mm 2 mps 758 mmHg 75%
    05:00 +20°C° 0 mm 2 mps 758 mmHg 71%
    06:00 +22°C° 0 mm 3 mps 758 mmHg 67%
    07:00 +24°C° 0 mm 3 mps 758 mmHg 62%
    08:00 +25°C° 0 mm 3 mps 759 mmHg 60%
    09:00 +26°C° 0 mm 3 mps 759 mmHg 58%
    10:00 +27°C° 0 mm 4 mps 759 mmHg 55%
    11:00 +27°C° 0 mm 4 mps 759 mmHg 54%
    12:00 +27°C° 0 mm 4 mps 758 mmHg 53%
    13:00 +28°C° 0 mm 4 mps 758 mmHg 53%
    14:00 +28°C° 0 mm 4 mps 758 mmHg 53%
    15:00 +28°C° 0 mm 4 mps 758 mmHg 53%
    16:00 +28°C° 0 mm 4 mps 757 mmHg 53%
    17:00 +27°C° 0 mm 4 mps 758 mmHg 60%
    18:00 +25°C° 0 mm 3 mps 758 mmHg 67%
    19:00 +24°C° 0 mm 3 mps 758 mmHg 74%
    20:00 +22°C° 0 mm 3 mps 758 mmHg 75%
    21:00 +22°C° 0 mm 3 mps 759 mmHg 76%
    22:00 +21°C° 0 mm 3 mps 759 mmHg 77%
    23:00 +21°C° 0 mm 2 mps 759 mmHg 80%

    9 Junio, Martes

    Tiempo Temperatura Precipitaciones Viento Presión Humedad
    00:00 +20°C° 0 mm 2 mps 759 mmHg 82%
    01:00 +20°C° 0 mm 2 mps 759 mmHg 84%
    02:00 +20°C° 0 mm 2 mps 759 mmHg 82%
    03:00 +20°C° 0 mm 2 mps 758 mmHg 80%
    04:00 +20°C° 0 mm 3 mps 758 mmHg 78%
    05:00 +21°C° 0 mm 3 mps 758 mmHg 73%
    06:00 +24°C° 0 mm 3 mps 758 mmHg 69%
    07:00 +25°C° 0 mm 3 mps 759 mmHg 64%
    08:00 +26°C° 0 mm 4 mps 759 mmHg 60%
    09:00 +27°C° 0 mm 4 mps 759 mmHg 57%
    10:00 +28°C° 0 mm 4 mps 759 mmHg 54%
    11:00 +28°C° 0 mm 4 mps 759 mmHg 54%
    12:00 +28°C° 0 mm 4 mps 759 mmHg 54%
    13:00 +28°C° 0 mm 4 mps 758 mmHg 54%
    14:00 +28°C° 0 mm 4 mps 758 mmHg 56%
    15:00 +28°C° 0 mm 4 mps 758 mmHg 57%
    16:00 +27°C° 0 mm 3 mps 758 mmHg 58%
    17:00 +26°C° 0 mm 3 mps 758 mmHg 64%
    18:00 +25°C° 0 mm 3 mps 758 mmHg 69%
    19:00 +24°C° 0 mm 2 mps 758 mmHg 75%
    20:00 +23°C° 0 mm 2 mps 759 mmHg 76%
    21:00 +23°C° 0 mm 2 mps 759 mmHg 77%
    22:00 +22°C° 0 mm 1 mps 759 mmHg 79%
    23:00 +22°C° 0 mm 1 mps 759 mmHg 79%
    Mostrar más